Theta_e
302 302 307 307 304 293 299 300 297 299 303 302 296 300 302 299 291 292 301 303 306 311 313 320 319 322 323 325 326 328 329 331 330 331 332 333 333 330 334 335 335 336 337 338 338 337 337 337 337 339 343 345 345 346 346 345 345 349 348 350 350 351 350
305 307 308 308 307 304 300 297 299 306 308 305 298 291 291 290 288 290 301 298 299 299 297 316 317 317 320 321 325 328 327 330 329 330 331 332 333 334 333 335 337 338 340 338 338 338 338 337 337 339 343 345 346 347 347 346 346 347 349 349 350 350 350
307 310 307 306 309 309 303 301 310 300 295 292 297 295 288 288 286 288 294 301 300 300 302 313 313 316 318 320 322 324 326 328 329 330 332 333 334 334 338 333 334 335 336 338 339 338 340 338 338 340 344 346 346 347 348 348 346 348 350 350 350 351 351
302 302 301 295 301 307 308 308 304 306 301 297 294 297 295 292 288 289 289 296 294 306 309 315 314 317 319 321 321 322 324 325 327 330 332 332 332 333 336 335 333 335 336 338 340 339 339 339 337 339 343 345 346 346 348 348 348 349 351 351 351 350 351
300 294 298 298 300 299 300 300 299 302 303 306 302 302 297 292 289 288 288 287 295 304 316 317 318 319 321 322 321 322 325 327 327 328 330 332 332 332 336 337 337 336 336 338 340 341 340 340 340 341 343 344 346 346 347 349 347 348 350 352 351 351 351
292 295 301 303 305 303 301 299 297 298 297 297 293 291 303 301 291 287 288 287 295 308 323 321 319 322 324 324 322 322 325 327 327 329 331 332 332 334 335 337 339 338 337 338 339 339 341 340 340 340 343 344 345 346 347 349 349 348 350 352 352 352 352
296 299 306 309 309 306 304 303 302 304 303 299 292 287 292 302 302 302 295 291 294 310 319 321 322 324 325 326 326 325 326 326 327 329 332 334 333 334 336 335 337 341 340 338 337 339 338 340 340 341 342 344 345 346 347 348 349 348 350 352 353 353 352
300 302 304 307 308 308 306 306 305 304 301 302 298 293 298 296 300 295 296 292 296 308 319 321 321 323 325 327 327 325 325 326 327 329 333 333 333 336 337 335 338 338 338 339 336 337 337 339 339 341 341 344 346 347 347 348 349 350 350 351 352 352 351
289 293 297 298 302 304 302 302 305 304 305 307 306 304 300 296 298 299 292 288 294 305 320 321 322 322 322 324 327 326 323 324 326 329 332 333 333 332 332 334 336 337 336 338 339 336 336 339 340 340 341 343 346 347 348 348 350 351 351 352 351 351 351
284 286 286 288 291 295 301 308 308 306 307 306 302 298 296 288 297 300 294 293 299 306 313 315 316 316 316 319 324 326 325 325 326 328 330 329 329 329 329 332 334 335 336 336 337 339 337 338 339 341 340 343 345 346 348 349 349 350 351 351 350 350 350
286 288 292 297 305 297 295 300 304 304 307 308 305 299 294 291 295 297 297 298 298 303 307 309 314 317 315 315 321 321 321 323 324 324 327 329 328 328 330 331 334 336 336 335 336 339 339 338 339 340 341 342 344 345 347 349 350 350 350 350 349 349 349
295 296 297 299 304 296 297 296 301 303 305 306 303 299 294 298 297 290 298 302 302 302 307 309 312 315 316 320 321 322 320 322 323 323 326 333 329 330 331 332 333 334 334 335 336 337 337 340 340 340 340 340 342 344 345 347 349 350 350 349 348 348 348
297 297 297 298 300 300 299 298 299 301 305 304 302 300 303 302 295 293 298 304 302 304 309 312 313 314 317 321 323 324 324 323 323 322 322 323 325 328 330 329 332 335 334 335 336 338 339 339 339 340 340 341 343 343 344 343 344 348 349 349 348 347 346
297 297 298 298 297 299 297 297 299 303 304 304 304 303 305 304 301 301 305 306 305 309 311 314 320 322 322 321 323 324 322 322 322 322 321 322 325 326 327 331 333 335 337 337 338 338 338 337 338 340 340 340 342 342 342 343 344 344 345 346 348 347 346
296 298 300 298 297 297 296 297 296 300 304 304 304 305 307 307 305 308 309 307 306 314 318 320 322 321 322 320 320 322 322 323 323 320 322 323 325 328 328 330 332 333 335 337 337 337 336 336 337 339 340 341 342 343 343 344 344 344 344 343 343 345 345
292 296 297 297 299 297 297 299 300 299 298 299 302 300 304 303 302 305 306 303 306 312 320 321 320 319 319 319 319 320 322 324 322 321 323 325 327 329 330 331 332 331 334 335 336 336 337 337 337 339 340 342 343 343 343 343 344 344 343 341 341 342 343
292 296 298 300 298 294 292 295 301 304 302 302 304 306 310 307 306 301 299 299 308 317 322 318 317 319 320 319 320 318 320 320 320 320 322 325 327 328 329 330 333 333 334 334 334 335 338 338 338 341 343 342 341 343 343 344 345 345 342 341 341 341 342
289 296 298 297 290 285 287 298 304 305 301 304 305 306 310 312 308 303 304 307 316 320 318 317 316 318 317 318 318 321 320 318 319 322 325 328 330 328 328 330 330 330 331 332 335 337 338 339 342 343 345 343 343 345 345 345 345 344 342 341 341 341 342
290 294 294 290 285 286 296 306 310 308 313 313 311 311 313 315 316 318 318 318 319 320 320 319 319 318 318 321 322 324 325 324 322 323 326 328 328 327 327 328 330 330 330 330 330 333 336 340 342 344 343 344 344 344 343 343 344 344 343 341 340 340 342
291 290 289 283 285 295 302 304 309 310 312 312 310 308 311 313 316 316 316 317 318 319 318 318 318 318 321 320 324 326 327 326 324 323 322 323 325 325 327 328 329 329 329 329 330 330 336 337 339 341 341 342 343 343 343 344 343 343 342 341 340 341 342
288 287 287 288 295 296 298 301 305 303 301 303 303 299 305 312 316 317 317 317 318 318 318 318 319 320 320 316 315 323 325 325 325 324 323 326 326 326 327 331 332 331 333 333 335 336 336 336 336 337 340 342 342 341 341 343 343 342 342 341 340 341 342
291 288 287 286 286 285 291 300 306 307 308 310 311 306 303 311 318 321 319 317 317 316 318 317 318 319 314 310 310 319 325 326 326 327 328 329 328 328 327 329 330 332 335 336 336 332 331 332 334 335 338 341 342 341 341 340 340 340 340 340 341 342 341
290 288 284 284 285 288 296 303 308 309 312 313 310 304 298 306 314 321 320 318 318 318 317 314 315 312 306 306 310 319 324 326 327 325 327 330 329 328 327 328 329 332 333 334 334 333 330 330 332 333 334 339 340 340 341 341 340 340 340 340 341 341 341
292 288 286 285 291 293 303 307 308 309 309 306 297 289 291 304 312 319 319 316 317 316 315 315 312 310 305 308 313 319 324 324 324 324 325 327 327 328 329 330 332 332 332 331 330 329 329 329 331 332 334 338 339 339 339 340 339 340 340 340 339 339 341
295 295 288 289 292 305 309 310 311 311 313 302 291 284 293 306 312 319 319 317 318 317 316 315 313 315 316 316 320 325 326 325 325 327 328 327 329 329 330 330 331 329 329 328 327 328 328 329 331 333 336 339 338 338 338 338 338 339 340 340 339 339 339
290 290 288 288 292 301 308 310 313 313 307 294 291 299 307 311 313 315 319 319 319 318 317 315 316 317 321 325 326 326 327 327 328 328 328 328 329 329 330 330 328 326 326 325 326 327 327 328 330 332 334 336 336 337 336 335 337 339 339 339 339 338 337
293 293 290 287 285 301 311 311 310 312 300 297 302 309 314 317 316 319 320 321 322 321 318 320 320 320 321 323 324 325 327 328 327 327 327 327 327 326 325 325 327 325 323 324 326 326 327 327 329 330 333 334 334 335 334 335 338 339 339 339 338 336 336
289 291 291 290 293 299 313 309 301 307 309 310 312 313 313 318 318 319 319 319 322 323 322 321 319 319 320 320 323 324 326 327 327 327 327 327 326 326 326 326 325 325 323 324 325 326 326 326 327 327 329 331 332 332 332 336 336 337 336 336 336 335 334
297 296 298 301 304 307 309 312 310 313 317 319 316 314 316 317 318 318 319 321 321 322 323 321 319 318 318 320 321 322 324 324 324 326 325 324 324 324 324 323 325 324 322 322 323 323 324 324 324 324 325 328 330 330 333 335 335 335 335 335 334 333 332
308 310 309 313 311 312 314 316 316 316 316 318 317 318 316 318 317 319 319 321 321 322 322 320 317 318 319 320 321 322 323 323 323 324 323 322 323 323 323 323 323 322 322 322 321 321 322 323 322 323 323 323 324 326 332 334 334 334 333 332 331 331 331
300 294 310 310 311 314 317 318 320 320 319 319 318 317 317 319 321 321 321 322 322 323 322 320 318 318 319 319 320 322 323 322 320 318 317 317 318 319 318 319 319 318 319 319 318 319 318 320 320 321 321 322 323 325 327 330 331 331 330 328 327 324 323
296 298 308 314 316 315 316 317 318 318 319 320 320 319 321 322 322 321 322 323 322 322 320 319 319 319 319 320 320 320 320 318 316 315 315 315 316 317 317 317 317 316 316 316 317 317 317 318 319 320 320 321 322 323 324 326 327 326 325 324 322 321 321
304 312 315 315 315 315 315 316 315 316 317 318 320 322 323 323 321 321 323 323 323 322 321 321 321 320 319 321 321 320 318 316 315 314 314 314 315 315 315 316 317 315 315 316 316 316 315 315 316 317 318 320 322 323 324 323 323 323 323 325 322 320 320
301 303 307 309 305 304 310 316 319 321 321 321 322 322 323 322 321 321 322 322 322 321 321 322 322 320 319 319 319 318 317 315 315 315 316 315 315 316 318 320 319 320 317 314 313 314 314 316 317 317 319 322 324 326 327 326 323 321 320 318 317 316 317
299 305 310 309 309 310 311 317 320 322 324 324 323 322 322 323 321 322 323 321 318 319 319 322 322 319 319 319 320 318 316 316 317 318 318 317 317 318 322 323 321 320 320 320 319 318 319 321 320 320 319 320 321 324 325 327 325 322 319 318 317 317 317
311 312 313 315 316 315 316 318 319 321 322 324 322 320 321 321 321 321 321 321 320 317 319 321 321 320 319 319 319 317 318 320 320 320 319 319 320 322 323 323 322 320 320 321 320 321 320 321 320 320 319 321 323 326 326 326 323 321 320 318 316 317 318
309 316 318 320 319 319 319 320 321 321 321 322 320 320 321 319 321 322 322 320 321 320 320 320 319 320 320 320 320 319 319 321 322 322 322 322 323 322 322 323 323 323 322 322 321 321 322 322 322 323 323 323 325 327 326 324 323 321 320 320 318 318 319
Wind_Speed
4 4 1 1 5 1 3 3 1 3 5 5 2 1 2 2 4 1 1 1 2 3 0 1 3 5 5 3 2 2 3 3 4 6 7 7 5 6 9 11 11 13 11 13 11 13 11 12 14 13 14 14 15 13 13 14 13 11 11 10 10 9 8
1 1 3 2 1 7 4 5 5 1 2 5 3 1 2 2 1 2 1 4 1 1 1 5 6 6 5 3 2 0 0 1 5 4 5 6 5 2 7 10 7 9 1 8 10 11 12 12 13 13 15 15 14 14 14 15 13 13 11 11 10 9 9
1 0 6 8 6 2 8 6 5 5 1 2 4 3 1 1 1 1 2 0 1 2 2 6 5 4 6 6 6 2 0 2 5 4 4 4 5 5 1 5 9 12 15 8 7 11 11 12 12 12 14 15 13 13 14 15 15 14 13 11 10 9 9
2 3 4 2 1 6 5 4 4 1 7 2 2 1 2 4 1 2 2 0 2 1 1 2 4 3 2 3 5 3 3 3 2 2 4 4 4 6 5 5 8 12 13 12 7 8 12 11 11 11 14 13 15 15 14 13 13 13 12 11 10 10 10
5 2 0 5 6 6 3 5 2 0 2 1 6 3 2 3 3 2 1 2 1 4 3 2 2 3 1 0 3 4 5 6 5 5 5 3 3 6 5 7 7 12 14 12 10 5 6 10 11 11 13 15 15 13 14 14 14 14 14 13 11 10 9
4 4 2 4 5 8 6 6 5 7 4 2 1 1 3 1 3 2 2 3 4 5 1 2 2 2 0 1 1 1 4 4 4 6 7 7 6 3 6 6 6 6 12 10 9 10 2 5 10 12 13 13 14 14 13 13 13 13 14 12 11 11 9
2 2 2 6 6 3 5 6 2 3 4 6 5 2 2 0 1 3 3 2 4 4 2 4 4 2 1 3 3 0 1 1 4 5 4 4 5 6 3 5 6 3 3 3 11 12 8 2 6 13 14 13 14 14 13 12 13 13 13 13 11 10 9
6 5 1 5 6 7 5 4 3 5 4 5 6 3 5 4 2 1 1 1 4 3 4 4 2 3 3 2 5 3 0 1 2 3 3 3 3 5 5 2 3 4 3 6 4 9 8 6 5 9 13 14 13 13 13 13 14 14 12 11 10 10 10
5 5 4 5 7 4 1 2 2 4 4 5 3 4 2 3 3 4 4 2 2 3 1 1 2 4 4 2 2 4 1 2 2 2 1 0 0 2 5 5 6 5 7 8 4 8 9 8 8 8 11 12 14 14 13 13 12 12 12 11 11 10 11
3 1 0 2 3 2 1 0 1 4 10 10 6 2 0 3 2 4 2 3 6 5 2 1 2 4 5 3 3 2 2 2 3 2 3 3 1 1 1 4 9 9 9 11 7 3 8 9 10 6 6 12 13 13 15 13 12 11 12 10 11 11 11
6 6 5 6 1 2 1 3 5 5 7 6 6 5 4 4 4 5 6 5 2 3 5 3 4 3 5 4 2 2 2 2 2 2 1 2 3 2 2 2 5 9 9 4 8 9 5 10 9 9 4 2 10 13 14 12 12 13 13 11 11 12 11
7 8 5 5 4 4 4 3 6 6 8 8 9 8 5 5 8 3 4 5 4 6 5 5 5 4 4 3 2 0 1 2 2 2 2 5 5 4 1 3 5 5 7 8 2 5 12 10 6 8 6 7 5 5 4 4 9 12 11 12 12 12 12
3 4 6 4 1 2 4 5 5 8 9 8 8 7 4 11 7 7 6 7 6 5 6 5 5 4 4 5 4 2 2 2 1 0 2 3 4 4 3 3 3 3 1 5 10 6 1 8 8 8 9 8 5 5 6 6 4 0 3 11 12 12 12
2 4 4 3 4 4 7 5 2 7 11 11 12 6 8 11 6 7 7 10 8 2 3 2 2 3 4 3 1 0 0 2 2 1 0 2 4 5 2 2 4 6 6 1 1 8 8 1 8 7 4 8 8 8 7 6 4 3 5 3 4 11 11
2 3 4 5 5 4 4 7 5 10 10 8 5 3 5 7 1 2 3 5 1 1 0 1 2 2 0 1 3 3 3 2 1 1 1 1 4 5 3 1 3 5 6 8 5 1 5 8 2 5 7 4 8 8 8 8 8 7 7 6 7 2 1
5 3 3 5 4 3 4 3 7 2 8 3 1 3 4 5 1 3 6 3 3 2 2 1 2 2 3 5 5 4 2 0 1 2 1 2 3 4 4 2 0 3 5 5 5 7 6 5 9 8 6 6 7 9 8 9 8 7 9 9 8 5 3
2 4 2 0 1 4 5 3 0 1 3 4 5 5 5 1 9 8 6 5 5 7 5 4 3 4 5 5 4 3 3 2 1 0 1 3 4 3 3 3 2 2 3 3 3 3 4 7 6 5 7 6 7 8 10 10 10 9 10 10 10 10 8
2 3 3 2 4 2 3 3 3 3 5 8 9 4 3 4 3 2 3 4 5 7 4 6 5 7 4 3 2 1 1 2 3 3 2 3 2 2 3 4 3 2 0 2 2 1 2 3 4 4 5 6 6 7 9 10 11 10 10 9 9 9 8
1 1 4 5 2 5 3 4 2 4 14 14 13 7 6 3 6 9 7 6 8 10 8 7 6 2 1 2 1 1 1 0 1 1 2 2 1 1 2 3 3 3 2 1 2 2 2 2 3 4 4 4 3 5 7 9 9 10 11 10 9 10 10
1 3 2 1 2 4 5 6 4 5 7 10 14 8 6 4 1 5 5 2 2 2 1 2 1 2 0 1 0 0 1 0 0 1 1 2 1 1 2 2 2 3 2 2 1 1 1 0 1 2 3 3 3 6 7 10 11 11 10 10 11 9 9
2 3 5 5 3 4 5 3 1 3 4 5 7 4 2 2 2 2 6 3 2 2 1 1 1 1 2 2 4 2 2 2 1 2 2 1 0 0 2 2 3 2 1 0 1 1 2 2 2 3 4 4 4 2 3 5 7 10 11 10 11 10 9
5 5 1 2 3 1 4 3 7 3 3 8 8 8 0 2 1 4 7 5 4 3 0 1 1 1 2 5 3 3 4 4 4 4 3 1 1 0 2 3 3 3 3 3 1 1 3 5 4 3 4 7 7 6 4 2 2 7 11 10 9 9 7
3 4 4 2 3 2 3 1 1 3 2 9 4 8 1 3 4 5 5 5 4 4 4 3 2 1 1 6 4 5 3 3 3 2 1 1 2 3 3 3 3 3 3 2 3 3 3 5 7 7 8 10 11 12 9 8 9 6 5 7 5 4 6
1 4 3 2 3 1 1 3 3 3 2 1 4 2 4 6 5 5 5 5 6 4 4 4 4 5 5 6 5 1 3 1 1 1 3 5 5 5 4 3 3 4 3 4 6 6 5 7 8 9 11 13 15 11 9 10 10 12 11 7 1 1 4
1 5 0 1 1 1 1 2 3 4 0 4 2 3 4 3 4 5 5 4 5 5 5 5 5 7 6 3 1 2 4 4 4 5 4 4 5 7 6 6 6 5 5 5 5 6 6 7 8 9 4 15 15 13 10 8 9 8 10 11 9 6 6
3 3 4 4 2 3 2 3 3 1 2 0 2 3 2 4 4 4 3 4 4 4 5 5 6 4 1 2 4 4 4 5 4 5 5 5 6 7 7 7 6 6 5 5 6 6 7 7 9 11 9 11 8 11 10 9 7 7 8 8 7 7 8
2 2 2 1 0 3 5 2 1 3 1 4 4 1 1 1 3 4 2 5 5 5 4 5 4 3 2 4 4 5 5 7 6 6 6 6 6 6 7 7 6 4 4 6 6 5 5 7 9 10 9 9 9 11 11 8 6 7 9 9 9 9 9
4 2 2 2 5 4 1 3 2 2 4 5 5 5 1 1 3 4 4 3 5 6 6 5 4 2 3 4 5 5 5 6 5 5 5 6 7 7 6 5 4 4 4 5 6 5 6 8 10 10 8 8 9 9 9 8 9 9 10 11 11 10 9
3 3 4 6 4 3 2 4 4 4 1 3 4 5 4 5 2 2 4 5 4 6 6 4 4 2 2 4 4 5 4 5 5 5 8 8 7 6 5 5 4 4 4 5 5 7 8 12 12 12 11 8 9 10 8 9 10 10 10 11 11 10 9
2 0 1 2 3 4 3 3 2 5 3 1 5 7 5 2 3 5 6 5 4 4 4 6 1 3 4 5 4 4 4 6 5 6 7 6 5 5 5 4 5 4 4 5 7 8 10 12 13 13 12 10 11 8 8 10 10 11 11 12 12 11 9
1 1 1 4 7 5 5 7 4 4 4 3 3 5 4 4 4 3 3 6 5 6 5 5 5 4 4 5 4 4 5 5 5 7 7 4 4 5 5 4 3 4 4 7 8 9 10 10 12 12 13 12 11 9 10 9 10 10 10 12 13 12 10
3 1 2 5 5 4 3 4 7 4 5 4 3 4 5 6 4 3 4 4 3 4 4 4 7 5 4 6 5 4 4 6 6 6 5 5 6 5 4 4 4 5 7 7 8 9 9 8 11 13 14 13 11 10 10 9 9 11 11 12 12 12 11
2 5 4 6 9 8 5 4 3 2 4 6 3 4 5 5 5 3 2 3 4 4 5 6 7 7 4 4 6 7 6 6 6 5 5 4 5 5 6 5 6 8 7 9 8 10 8 8 10 12 12 10 10 11 9 9 9 11 12 11 11 11 9
2 4 5 5 7 2 1 1 1 2 2 6 4 3 3 3 5 4 4 2 2 4 5 7 7 8 6 5 8 8 7 7 7 6 5 5 5 5 4 3 3 5 7 8 9 9 6 5 7 9 10 9 9 8 7 7 8 10 10 10 11 10 10
3 5 5 4 7 6 3 3 0 2 3 6 6 4 4 1 3 5 6 5 3 4 3 5 8 7 8 8 9 9 7 7 6 6 6 6 4 3 1 1 3 5 5 5 4 4 2 3 5 8 9 9 9 7 5 4 6 6 7 8 8 8 8
1 2 5 7 7 7 4 3 3 3 3 7 5 2 2 2 3 3 4 5 8 5 5 4 5 8 8 8 11 10 7 7 7 6 4 3 2 2 4 4 4 4 3 4 4 5 4 4 5 6 8 6 5 5 3 2 6 6 6 7 7 7 7
4 3 4 3 8 8 5 4 4 3 3 5 6 3 1 3 3 4 5 3 4 9 8 7 5 8 10 8 9 11 9 7 6 6 5 4 5 6 5 6 5 4 4 4 4 4 4 4 3 3 4 4 3 3 3 5 8 8 6 7 8 8 7
Wind_Direction
153 201 203 351 116 134 242 55 39 202 180 111 100 3 323 38 48 235 186 18 322 315 340 5 4 7 351 360 47 94 123 117 154 182 187 190 176 165 181 180 183 188 188 184 177 174 179 181 180 175 175 175 177 177 181 183 183 182 187 190 188 187 188
261 317 113 102 130 138 73 95 217 223 76 115 118 185 324 58 131 251 131 185 265 42 270 340 13 12 343 353 319 259 214 139 171 193 194 185 149 130 184 173 149 128 144 259 189 175 175 181 182 175 176 177 179 177 180 181 181 182 189 190 189 190 188
261 281 54 43 353 28 141 180 189 95 289 9 320 90 14 23 331 274 349 206 250 158 282 352 342 358 341 334 357 2 304 205 189 191 208 203 120 118 81 171 144 158 183 212 234 190 177 175 182 175 176 176 177 180 181 180 182 185 185 188 190 190 191
297 31 64 119 325 353 30 73 45 95 100 149 92 166 180 114 243 48 268 40 212 241 226 276 295 310 312 350 4 355 348 350 318 269 216 211 169 149 161 188 176 172 181 196 220 222 181 168 179 172 175 177 179 181 181 184 185 182 180 186 188 191 192
45 20 259 197 165 121 37 44 16 15 39 220 113 27 94 152 170 176 183 330 281 256 224 218 282 315 306 100 323 323 346 347 357 2 340 299 245 159 185 170 183 181 184 186 191 219 238 181 172 166 177 179 182 182 184 184 183 184 183 185 185 192 188
355 282 248 138 134 146 150 146 161 165 129 86 103 265 350 51 96 197 117 241 261 266 195 202 221 223 205 178 129 317 315 336 349 342 335 330 318 263 185 191 171 185 177 166 165 180 200 243 172 168 177 179 180 184 185 184 184 183 186 186 185 187 190
237 269 342 139 127 110 149 132 165 141 105 101 100 117 254 18 244 132 154 124 276 236 206 220 227 202 215 156 139 85 303 329 331 324 309 309 298 295 260 200 189 138 358 180 165 179 169 188 240 175 175 179 182 184 183 185 181 186 186 186 184 182 186
310 328 296 80 125 107 48 30 96 104 133 169 162 173 188 133 127 54 9 181 247 275 226 243 298 268 260 177 142 147 251 252 258 282 308 319 333 334 351 60 3 346 51 303 197 168 179 177 226 209 179 178 179 181 185 183 185 185 185 184 181 181 185
338 347 347 1 340 42 100 167 219 147 119 90 131 103 60 88 225 163 113 243 285 274 261 348 306 287 272 260 174 144 186 295 283 275 246 201 20 6 17 75 163 191 236 251 233 185 180 185 202 227 189 179 178 183 182 184 186 184 183 181 180 185 185
132 174 349 268 305 258 256 146 211 136 123 137 108 128 174 112 264 122 134 252 252 271 283 339 301 295 308 302 320 21 63 10 338 342 333 314 128 34 10 48 116 179 223 258 274 229 188 191 194 217 220 181 180 182 184 182 180 180 183 179 181 183 186
177 205 215 248 128 1 319 244 188 186 159 139 111 99 95 181 207 182 224 183 253 304 289 280 271 246 257 307 348 47 50 327 298 302 281 245 258 180 132 119 105 121 153 229 313 307 270 193 179 171 206 247 191 181 182 182 181 179 180 181 182 183 188
193 194 211 235 234 236 256 236 211 190 152 155 137 146 203 173 106 255 263 194 172 250 259 256 250 266 291 284 250 221 204 198 226 248 281 300 304 305 103 93 86 109 140 137 202 308 323 302 170 142 143 133 113 113 139 185 189 180 179 183 181 185 188
232 208 217 235 277 267 267 301 204 182 173 166 160 205 180 143 154 198 232 169 186 241 224 231 219 211 221 228 230 212 225 252 263 324 309 309 309 321 352 41 83 80 359 192 178 172 235 305 272 163 143 139 131 130 131 119 75 6 226 186 182 187 187
307 306 326 352 339 318 324 316 228 181 170 185 186 185 167 168 191 205 168 174 196 241 270 180 184 179 187 224 255 280 185 244 239 176 262 305 297 281 246 144 134 130 115 18 70 140 135 119 321 303 161 144 147 147 149 135 114 93 85 27 222 190 188
299 304 327 340 359 355 342 324 271 192 192 192 225 132 169 185 38 67 132 148 215 298 283 179 211 194 196 341 276 234 222 225 171 159 166 273 286 282 275 188 155 145 149 151 160 201 151 140 166 299 293 180 149 144 148 154 144 123 85 81 67 40 97
323 307 351 332 354 3 41 343 351 30 151 135 245 112 172 125 197 121 110 130 232 232 223 189 163 170 204 226 238 244 246 277 90 117 253 278 272 280 292 302 120 141 143 160 175 168 160 173 178 184 224 236 170 158 150 146 144 130 115 111 109 113 139
232 264 116 40 14 29 7 319 254 60 61 91 66 38 27 146 142 119 148 221 214 178 190 144 222 215 237 250 255 312 345 317 289 249 228 267 282 297 310 318 357 85 131 167 187 200 183 185 218 206 200 200 197 171 158 156 149 146 139 140 143 148 158
236 303 353 45 48 23 249 231 186 196 143 116 88 51 40 341 69 176 177 177 173 153 179 182 202 214 225 232 268 203 236 301 302 305 268 247 274 315 320 319 317 317 63 120 143 182 229 255 232 220 211 218 208 186 169 160 159 155 144 153 153 159 160
216 335 24 38 318 234 240 286 25 59 105 94 89 70 29 15 80 95 97 124 156 180 193 198 211 202 15 4 100 297 305 212 276 310 335 342 356 325 317 320 329 332 318 333 10 52 61 32 314 297 265 238 238 195 179 170 164 154 154 154 166 168 169
54 57 64 90 241 239 286 302 177 134 112 109 88 49 19 4 287 136 132 155 142 177 261 304 7 93 322 10 344 194 257 44 270 342 305 301 309 330 311 324 308 314 329 337 318 282 211 175 218 243 265 287 269 220 204 185 174 162 154 165 169 171 175
160 190 147 203 295 347 341 10 11 171 161 173 131 128 320 296 250 180 143 162 194 201 252 11 23 24 26 345 302 275 219 263 250 224 251 234 293 274 309 348 343 319 294 220 266 303 294 244 212 213 231 222 226 283 283 245 175 158 167 177 177 178 174
118 128 61 358 27 290 275 259 291 331 140 120 132 99 278 319 224 169 139 174 199 210 131 175 239 34 17 309 287 252 243 218 235 250 235 192 160 332 345 342 341 1 23 21 9 317 298 296 272 243 231 215 195 166 167 194 227 176 173 181 199 192 166
65 67 119 180 149 239 216 257 309 350 73 127 102 70 332 263 204 203 154 175 209 193 172 182 104 93 280 259 243 247 215 226 260 272 299 46 50 23 3 343 7 14 29 25 351 335 322 311 292 278 255 218 195 183 169 164 173 179 184 180 190 197 148
113 134 101 191 198 162 275 272 299 282 271 23 60 11 276 246 210 191 161 177 196 208 182 157 152 161 234 264 261 224 157 163 338 34 28 23 13 14 12 10 37 39 29 28 19 5 330 306 278 272 253 205 185 177 160 149 160 159 161 159 76 102 118
113 101 281 344 319 262 213 244 273 299 138 74 91 200 238 235 174 196 173 181 183 168 165 170 183 227 202 215 228 86 78 52 42 45 38 36 30 22 27 45 48 42 28 22 10 352 329 315 311 327 255 173 165 156 146 145 147 150 141 138 143 153 123
156 178 130 212 224 232 200 257 253 298 53 326 205 235 198 140 177 224 162 155 190 167 187 195 217 232 234 65 63 56 48 70 71 68 47 35 41 42 47 52 42 41 29 24 16 2 354 343 352 11 19 103 124 127 128 118 113 120 117 115 121 111 98
63 64 104 44 162 271 176 195 6 25 117 228 210 189 39 136 176 147 153 163 194 164 213 226 205 204 80 75 80 73 76 74 64 70 65 44 46 41 33 36 32 40 41 37 30 14 6 11 18 27 23 78 89 102 104 108 107 113 112 115 109 104 100
158 141 140 183 212 214 218 107 170 233 190 186 174 131 113 55 128 149 143 182 186 184 179 191 193 162 109 91 100 91 84 84 81 84 71 58 61 54 43 38 23 25 45 38 34 23 32 42 35 31 31 53 72 78 88 100 97 97 100 101 99 88 86
137 198 206 235 210 180 214 144 178 169 182 130 168 153 152 143 204 173 146 188 200 186 177 179 155 123 134 130 127 112 108 99 96 84 76 80 77 69 54 44 24 24 41 52 48 40 37 54 50 43 29 46 76 84 85 92 97 100 100 100 99 102 104
266 347 169 164 98 120 87 56 124 129 103 66 130 135 124 209 194 173 176 197 190 184 170 146 161 142 139 116 107 105 105 106 105 98 89 81 81 65 45 32 29 31 35 51 49 50 46 53 60 53 40 30 45 37 66 88 95 100 105 104 101 98 94
110 251 326 118 134 109 113 104 79 95 127 152 138 139 148 171 177 187 205 176 183 175 174 167 149 136 127 117 119 122 120 102 83 85 90 80 76 66 47 14 27 46 68 66 58 52 53 51 60 62 56 42 39 49 61 69 85 90 93 93 89 82 76
128 211 92 55 54 74 69 101 119 111 110 99 130 161 168 167 162 155 176 147 136 150 158 146 130 134 133 129 134 122 107 100 97 97 100 96 73 59 62 60 61 65 62 73 75 72 64 55 69 69 62 49 38 40 50 59 75 84 83 83 84 85 83
20 58 65 93 72 45 32 41 57 140 135 109 110 140 144 144 130 126 146 173 168 161 156 134 129 126 140 139 134 122 110 104 106 108 104 95 104 106 93 75 74 77 83 83 79 77 69 68 74 74 68 60 53 47 47 52 64 77 80 80 84 85 85
125 167 198 152 112 152 203 5 94 78 94 106 116 132 124 142 137 153 149 129 118 129 143 140 135 133 138 137 127 122 118 123 124 122 116 122 124 118 114 107 79 85 87 94 93 89 82 67 70 76 75 69 65 56 46 58 63 80 88 89 89 89 89
217 239 231 187 138 132 188 174 150 86 115 105 112 133 150 151 155 165 142 132 115 125 127 139 132 136 137 134 121 117 124 129 136 131 132 132 133 141 102 65 81 104 113 110 107 98 84 70 82 85 91 97 103 101 85 74 90 89 92 96 94 96 97
196 203 188 165 142 153 169 193 119 92 110 110 99 91 97 115 109 143 159 168 153 143 126 125 132 131 124 129 126 127 130 136 133 130 126 118 109 99 77 79 86 90 85 95 115 123 120 109 104 110 116 123 125 114 96 76 98 93 88 95 103 102 101
191 180 166 151 113 117 123 121 97 93 90 106 110 87 74 81 54 93 112 101 138 141 138 135 129 127 123 125 131 136 139 135 129 123 119 108 103 100 99 92 87 97 96 90 85 86 100 117 122 130 129 133 135 130 124 102 94 94 94 99 100 102 103